When you browse on this site, cookies collect data to enhance your experience and personalize the content and advertising you see.
Visit our Privacy Policy to learn more. By continuing to use the site, you agree to this use of cookies and data.
  • în România
  • Lista ţărilor
  • Pe 7 zile
  • Temperatura apei
  • Hartă satelitară
  • Meteo pe hartă
  • Widget-uri
  • user-avatar
    Intrare

    Meteo pe oră la Lepeshkino

    Astăzi, 23 Iulie, Marţi

    Timp Temperatura Precipitaţii Vânt Presiune Umiditate
    00:00 +15°C° 0 mm 2 m/s 743 mmHg 93%
    01:00 +14°C° 0 mm 2 m/s 742 mmHg 94%
    02:00 +14°C° 0 mm 2 m/s 743 mmHg 95%
    03:00 +14°C° 0 mm 2 m/s 743 mmHg 96%
    04:00 +13°C° 0 mm 2 m/s 743 mmHg 96%
    05:00 +14°C° 0 mm 2 m/s 743 mmHg 95%
    06:00 +15°C° 0 mm 2 m/s 743 mmHg 94%
    07:00 +16°C° 0 mm 2 m/s 743 mmHg 94%
    08:00 +17°C° 0.1 mm 3 m/s 743 mmHg 90%
    09:00 +18°C° 0.1 mm 3 m/s 743 mmHg 87%
    10:00 +19°C° 0.1 mm 4 m/s 744 mmHg 84%
    11:00 +19°C° 0.6 mm 4 m/s 744 mmHg 82%
    12:00 +20°C° 0.6 mm 4 m/s 744 mmHg 80%
    13:00 +21°C° 0.6 mm 5 m/s 744 mmHg 78%
    14:00 +21°C° 0.8 mm 5 m/s 744 mmHg 79%
    15:00 +20°C° 0.8 mm 5 m/s 744 mmHg 80%
    16:00 +20°C° 0.8 mm 5 m/s 744 mmHg 81%
    17:00 +20°C° 0.3 mm 4 m/s 744 mmHg 83%
    18:00 +19°C° 0.3 mm 4 m/s 744 mmHg 86%
    19:00 +19°C° 0.3 mm 3 m/s 745 mmHg 89%
    20:00 +18°C° 0 mm 3 m/s 745 mmHg 90%
    21:00 +16°C° 0 mm 3 m/s 745 mmHg 92%
    22:00 +14°C° 0 mm 3 m/s 745 mmHg 94%
    23:00 +14°C° 0 mm 3 m/s 745 mmHg 95%

    Mâine, 24 Iulie, Miercuri

    Timp Temperatura Precipitaţii Vânt Presiune Umiditate
    00:00 +14°C° 0 mm 3 m/s 745 mmHg 95%
    01:00 +13°C° 0 mm 3 m/s 745 mmHg 96%
    02:00 +14°C° 0 mm 2 m/s 746 mmHg 96%
    03:00 +14°C° 0 mm 2 m/s 746 mmHg 96%
    04:00 +13°C° 0 mm 2 m/s 746 mmHg 97%
    05:00 +15°C° 0 mm 2 m/s 746 mmHg 95%
    06:00 +16°C° 0 mm 2 m/s 746 mmHg 94%
    07:00 +17°C° 0 mm 2 m/s 746 mmHg 93%
    08:00 +18°C° 0 mm 2 m/s 747 mmHg 88%
    09:00 +20°C° 0 mm 2 m/s 747 mmHg 83%
    10:00 +21°C° 0 mm 2 m/s 747 mmHg 77%
    11:00 +23°C° 0.2 mm 2 m/s 747 mmHg 76%
    12:00 +24°C° 0.2 mm 3 m/s 747 mmHg 74%
    13:00 +24°C° 0.2 mm 3 m/s 747 mmHg 73%
    14:00 +25°C° 0.5 mm 3 m/s 747 mmHg 72%
    15:00 +25°C° 0.5 mm 3 m/s 747 mmHg 72%
    16:00 +25°C° 0.5 mm 3 m/s 747 mmHg 71%
    17:00 +24°C° 0.2 mm 2 m/s 747 mmHg 75%
    18:00 +24°C° 0.2 mm 2 m/s 747 mmHg 79%
    19:00 +23°C° 0.2 mm 2 m/s 747 mmHg 82%
    20:00 +21°C° 0 mm 2 m/s 747 mmHg 84%
    21:00 +19°C° 0 mm 2 m/s 748 mmHg 86%
    22:00 +18°C° 0 mm 2 m/s 748 mmHg 88%
    23:00 +17°C° 0 mm 2 m/s 748 mmHg 89%

    Poimâine, 25 Iulie, Joi

    Timp Temperatura Precipitaţii Vânt Presiune Umiditate
    00:00 +17°C° 0 mm 2 m/s 748 mmHg 90%
    01:00 +16°C° 0 mm 2 m/s 748 mmHg 90%
    02:00 +16°C° 0 mm 2 m/s 748 mmHg 90%
    03:00 +15°C° 0 mm 2 m/s 748 mmHg 91%
    04:00 +15°C° 0 mm 2 m/s 749 mmHg 91%
    05:00 +16°C° 0 mm 2 m/s 749 mmHg 89%
    06:00 +17°C° 0 mm 2 m/s 749 mmHg 87%
    07:00 +19°C° 0 mm 2 m/s 749 mmHg 86%
    08:00 +20°C° 0 mm 3 m/s 749 mmHg 81%
    09:00 +22°C° 0 mm 3 m/s 749 mmHg 76%
    10:00 +25°C° 0 mm 3 m/s 749 mmHg 71%
    11:00 +25°C° 0 mm 3 m/s 749 mmHg 67%
    12:00 +26°C° 0 mm 3 m/s 749 mmHg 62%
    13:00 +27°C° 0 mm 3 m/s 749 mmHg 58%
    14:00 +27°C° 0 mm 3 m/s 749 mmHg 59%
    15:00 +27°C° 0 mm 3 m/s 749 mmHg 61%
    16:00 +27°C° 0 mm 3 m/s 749 mmHg 62%
    17:00 +26°C° 0 mm 3 m/s 749 mmHg 67%
    18:00 +25°C° 0 mm 3 m/s 749 mmHg 72%
    19:00 +24°C° 0 mm 3 m/s 749 mmHg 78%
    20:00 +22°C° 0 mm 3 m/s 749 mmHg 79%
    21:00 +20°C° 0 mm 3 m/s 749 mmHg 81%
    22:00 +19°C° 0 mm 3 m/s 749 mmHg 83%
    23:00 +18°C° 0 mm 3 m/s 749 mmHg 83%

    26 Iulie, Vineri

    Timp Temperatura Precipitaţii Vânt Presiune Umiditate
    00:00 +18°C° 0 mm 3 m/s 750 mmHg 83%
    01:00 +17°C° 0 mm 3 m/s 750 mmHg 83%
    02:00 +17°C° 0 mm 2 m/s 749 mmHg 84%
    03:00 +16°C° 0 mm 2 m/s 749 mmHg 85%
    04:00 +16°C° 0 mm 2 m/s 749 mmHg 86%
    05:00 +17°C° 0 mm 2 m/s 749 mmHg 83%
    06:00 +19°C° 0 mm 1 m/s 749 mmHg 79%
    07:00 +21°C° 0 mm 1 m/s 750 mmHg 76%
    08:00 +22°C° 0 mm 1 m/s 750 mmHg 71%
    09:00 +24°C° 0 mm 1 m/s 749 mmHg 66%
    10:00 +25°C° 0 mm 1 m/s 749 mmHg 62%
    11:00 +26°C° 0 mm 1 m/s 749 mmHg 60%
    12:00 +26°C° 0 mm 2 m/s 749 mmHg 58%
    13:00 +27°C° 0 mm 2 m/s 749 mmHg 56%
    14:00 +27°C° 0 mm 2 m/s 748 mmHg 56%
    15:00 +27°C° 0 mm 2 m/s 748 mmHg 56%
    16:00 +27°C° 0 mm 2 m/s 748 mmHg 56%
    17:00 +27°C° 0 mm 2 m/s 748 mmHg 62%
    18:00 +26°C° 0 mm 2 m/s 747 mmHg 68%
    19:00 +25°C° 0 mm 2 m/s 747 mmHg 74%
    20:00 +23°C° 0 mm 2 m/s 747 mmHg 77%
    21:00 +20°C° 0 mm 2 m/s 747 mmHg 81%
    22:00 +19°C° 0 mm 2 m/s 747 mmHg 85%
    23:00 +18°C° 0 mm 2 m/s 746 mmHg 86%

    27 Iulie, Sâmbătă

    Timp Temperatura Precipitaţii Vânt Presiune Umiditate
    00:00 +19°C° 0 mm 1 m/s 746 mmHg 87%
    01:00 +18°C° 0 mm 1 m/s 746 mmHg 87%
    02:00 +18°C° 0 mm 1 m/s 746 mmHg 87%
    03:00 +18°C° 0 mm 1 m/s 745 mmHg 87%
    04:00 +16°C° 0 mm 1 m/s 745 mmHg 88%
    05:00 +18°C° 0 mm 1 m/s 745 mmHg 85%
    06:00 +18°C° 0 mm 0 m/s 745 mmHg 82%
    07:00 +19°C° 0 mm 0 m/s 745 mmHg 79%
    08:00 +20°C° 0.2 mm 0 m/s 744 mmHg 76%
    09:00 +21°C° 0.2 mm 0 m/s 744 mmHg 73%
    10:00 +24°C° 0.2 mm 1 m/s 744 mmHg 70%
    11:00 +25°C° 0.3 mm 1 m/s 743 mmHg 65%
    12:00 +26°C° 0.3 mm 1 m/s 743 mmHg 60%
    13:00 +27°C° 0.3 mm 1 m/s 742 mmHg 55%
    14:00 +27°C° 0.1 mm 1 m/s 742 mmHg 56%
    15:00 +27°C° 0.1 mm 1 m/s 741 mmHg 56%
    16:00 +27°C° 0.1 mm 1 m/s 741 mmHg 56%
    17:00 +26°C° 0.4 mm 1 m/s 740 mmHg 65%
    18:00 +24°C° 0.4 mm 1 m/s 740 mmHg 73%
    19:00 +23°C° 0.4 mm 2 m/s 739 mmHg 82%
    20:00 +22°C° 0 mm 1 m/s 739 mmHg 82%
    21:00 +20°C° 0 mm 1 m/s 739 mmHg 83%
    22:00 +19°C° 0 mm 1 m/s 738 mmHg 83%
    23:00 +19°C° 0 mm 1 m/s 738 mmHg 85%

    28 Iulie, Duminică

    Timp Temperatura Precipitaţii Vânt Presiune Umiditate
    00:00 +18°C° 0 mm 1 m/s 737 mmHg 86%
    01:00 +18°C° 0 mm 1 m/s 737 mmHg 88%
    02:00 +16°C° 0 mm 1 m/s 736 mmHg 89%
    03:00 +16°C° 0 mm 2 m/s 735 mmHg 91%
    04:00 +16°C° 0 mm 2 m/s 735 mmHg 92%
    05:00 +16°C° 0.2 mm 2 m/s 734 mmHg 91%
    06:00 +17°C° 0.2 mm 3 m/s 734 mmHg 91%
    07:00 +18°C° 0.2 mm 3 m/s 733 mmHg 90%
    08:00 +19°C° 0.9 mm 3 m/s 733 mmHg 87%
    09:00 +20°C° 0.9 mm 3 m/s 732 mmHg 85%
    10:00 +21°C° 0.9 mm 3 m/s 732 mmHg 82%
    11:00 +21°C° 1.6 mm 3 m/s 732 mmHg 80%
    12:00 +22°C° 1.6 mm 3 m/s 731 mmHg 78%
    13:00 +22°C° 1.6 mm 3 m/s 731 mmHg 77%
    14:00 +21°C° 1 mm 4 m/s 731 mmHg 79%
    15:00 +21°C° 1 mm 4 m/s 731 mmHg 82%
    16:00 +20°C° 1 mm 4 m/s 731 mmHg 85%
    17:00 +18°C° 0.4 mm 4 m/s 731 mmHg 89%
    18:00 +15°C° 0.4 mm 4 m/s 731 mmHg 92%
    19:00 +13°C° 0.4 mm 4 m/s 731 mmHg 96%
    20:00 +12°C° 0.5 mm 4 m/s 731 mmHg 96%
    21:00 +12°C° 0.5 mm 4 m/s 731 mmHg 96%
    22:00 +12°C° 0.5 mm 4 m/s 731 mmHg 97%
    23:00 +11°C° 0.2 mm 4 m/s 730 mmHg 96%
    Arată mai mult